Tracking 18647 objects as of 28-May-2017
HD Live streaming from Space Station
objects crossing your sky now

COSMOS 909

Track COSMOS 909 now!
10-day predictions
COSMOS 909 is classified as:


NORAD ID: 10010
Int'l Code: 1977-036A
Perigee: 991.2 km
Apogee: 2,121.7 km
Inclination: 65.9 °
Period: 117.1 minutes
Semi major axis: 7927 km
RCS: 1.4527 m2 (large)
Launch date: May 19, 1977
Source: Commonwealth of Independent States (former USSR) (CIS)
Launch site: PLESETSK MISSILE AND SPACE COMPLEX (PKMTR)
Your satellite tracking list
Your tracking list is empty





NASA's NSSDC Master Catalog

Two Line Element Set (TLE):
1 10010U 77036A   17147.93046292 -.00000069 +00000-0 -48510-4 0  9999
2 10010 065.8655 077.6211 0713042 261.6037 090.3569 12.30334254778433
Source of the keplerian elements: AFSPC